Regional Weather Roundup
Issued by NWS Charleston, SC

Home | Current Version | Previous Version | Text Only | Print | Product List | Glossary On
Versions: 1 2 3 4 5 6 7 8 9 10 11 12 13 14 15 16 17 18 19 20 21 22 23 24 25 26 27 28 29 30 31 32 33 34 35 36 37 38 39 40 41 42 43 44 45 46 47 48 49 50
000
ASUS42 KCHS 031826
RWRCHS

REGIONAL WEATHER ROUNDUP
NATIONAL WEATHER SERVICE CHARLESTON SC
200 PM EDT SUN MAY 03 2015

NOTE: "FAIR" INDICATES FEW OR NO CLOUDS BELOW 12,000 FEET WITH NO
SIGNIFICANT WEATHER AND/OR OBSTRUCTIONS TO VISIBILITY.

NOT ALL STATIONS ARE QUALITY CONTROLLED BY THE NATIONAL
WEATHER SERVICE. USE DATA WITH CAUTION...ESPECIALLY
DEWPOINT OBSERVATIONS.

SCZ027-030-031-034>040-042>050-031900-
...SOUTHEAST SOUTH CAROLINA...

CITY           SKY/WX    TMP DP  RH WIND       PRES   REMARKS
N CHARLESTON   PTSUNNY   79  48  33 NW6       30.18F
6HR MIN TEMP:  61; 6HR MAX TEMP:  80;

WATERFRONT PRK   N/A     75 N/A N/A E9          N/A
MOUNT PLEASANT FAIR      79  55  44 MISG      30.18S
PINOPOLIS      NOT AVBL
MONCKS CORNER  FAIR      81  43  26 NE8       30.18S
SUMMERVILLE    FAIR      81  50  34 SW5       30.18F
BEAUFORT MCAS  MOSUNNY   80  50  34 VRB3      30.19F
6HR MIN TEMP:  60; 6HR MAX TEMP:  80;

BEAUFORT ARPT  MOCLDY    77  52  41 W5        30.18F
HILTON HEAD IS MOSUNNY   75  59  57 E7        30.20F
WALTERBORO     PTCLDY    79  46  31 CALM      30.19S
ALLENDALE      FAIR      79  48  34 CALM      30.17F

...SOUTHERN MIDLANDS AND PEE DEE...

CITY           SKY/WX    TMP DP  RH WIND       PRES   REMARKS
GEORGETOWN     NOT AVBL
KINGSTREE      NOT AVBL
ORANGEBURG     MOSUNNY   79  48  33 VRB5      30.18F
6HR MIN TEMP:  55; 6HR MAX TEMP:  80;

BARNWELL       FAIR      81  48  32 SE5       30.18F
AIKEN          FAIR      77  43  29 SW3       30.22S
MANNING        MOCLDY    75  41  29 E5        30.18S
COLUMBIA       MOSUNNY   80  46  30 VRB3      30.17F
6HR MIN TEMP:  55; 6HR MAX TEMP:  81;

SUMTER         SUNNY     78  44  29 N5        30.16F
6HR MIN TEMP:  57; 6HR MAX TEMP:  79;

FLORENCE       MOSUNNY   79  42  26 VRB5      30.18F
6HR MIN TEMP:  57; 6HR MAX TEMP:  80;

MYRTLE BEACH   MOSUNNY   73  61  64 S14       30.22F
N MYRTLE BEACH SUNNY     71  60  68 SE13      30.20F
6HR MIN TEMP:  59; 6HR MAX TEMP:  73;


$$

GAZ063-065-086>088-099>101-113>116-118-119-134>141-150-031900-
...SOUTHEAST GEORGIA...

CITY           SKY/WX    TMP DP  RH WIND       PRES   REMARKS
SAVANNAH ARPT  MOSUNNY   79  46  31 CALM      30.19F
6HR MIN TEMP:  59; 6HR MAX TEMP:  81;

HUNTER AAF     PTSUNNY   78  50  37 E5        30.16F
6HR MIN TEMP:  60; 6HR MAX TEMP:  79;

FORT STEWART   MOSUNNY   79  48  33 CALM      30.16F
6HR MIN TEMP:  59; 6HR MAX TEMP:  79;

STATESBORO       N/A     79  51  37 SW5       30.18F
SYLVANIA       PTCLDY    79  51  37 SW3       30.19F
CLAXTON        FAIR      79  54  41 SE6       30.18F

...CSRA...CENTRAL AND FAR SOUTHEAST GEORGIA...

CITY           SKY/WX    TMP DP  RH WIND       PRES   REMARKS
THOMSON        SUNNY     82  53  37 CALM      30.22S
AUGUSTA-BUSH   MOSUNNY   80  52  37 VRB6      30.17F
6HR MIN TEMP:  53; 6HR MAX TEMP:  80;

AUGUSTA-DANIEL SUNNY     80  47  31 W8        30.18F
SWAINSBORO     NOT AVBL
VIDALIA        MOSUNNY   79  52  38 S6        30.18F
EASTMAN        CLOUDY    79  53  39 SW5       30.20F
HAZLEHURST     FAIR      78  49  35 S6        30.17F
ALMA           MOSUNNY   80  48  32 SE7       30.18F
6HR MIN TEMP:  59; 6HR MAX TEMP:  80;

WAYCROSS       MOSUNNY   82  52  34 E5        30.18F
JESUP          FAIR      81  52  36 SE5       30.18F
BAXLEY         FAIR      81  46  30 S3        30.18S
BRUNSWICK      SUNNY     81  43  26 S9        30.19F
SAINT SIMONS   SUNNY     77  47  34 SE8       30.20F
6HR MIN TEMP:  61; 6HR MAX TEMP:  79;


$$

SCZ027-028-034-036>038-045-046-048>050-GAZ119-141-031900-
...LAKE AND SUPPLEMENTAL COASTAL OBSERVATIONS...

STATION/POSITION TIME  TEMP    WIND        PRES    WAVE   SWELL
                       AIR SEA DIR/SP/G            HT/PER HT/PER/DIR
                 (UTC) (F)     (DEG/KT/KT) (MB)    (FT/S) (FT/S/D)
UPR LAKE MARION  NOT AVBL
WINYAH BAY       1700   69     110/  8     1022.0
LAKE MURRAY      1700   76        CALM     1021.7F
ACE BASIN NERRS  1700   78     170/  1     1023.0S
FORT PULASKI     1700           80/  6/  7   N/A
SAPELO ISLAND    1800   81     150/  6     1022.0F

$$

ANZ835-935-AMZ111-154-330-350-352-354-370-450-454-472-031900-
...C-MAN AND BUOY OBSERVATIONS...

STATION/POSITION TIME  TEMP    WIND        PRES    WAVE   SWELL
                       AIR SEA DIR/SP/G            HT/PER HT/PER/DIR
                 (UTC) (F)     (DEG/KT/KT) (MB)    (FT/S) (FT/S/D)
BUOY 41004       1750   69 75  280/  2/  4 1022.7F   3/ 9   3/ 9
BUOY 41008       1750   70 72  100/  2/  2 1023.2F   3/13   3/ 60/13
FOLLY BEACH CMAN 1800   71     180/  8/  9 1022.4F
CAPERS NEARSHORE 1708   69     180/  4/  6 1022.8F
FRIPP NEARSHORE  1700   74     160/  4/  6 1022.5F


STATION/POSITION TIME  TEMP    WIND        PRES    WAVE   SWELL
                       AIR SEA DIR/SP/G            HT/PER HT/PER/DIR
                 (UTC) (F)     (DEG/KT/KT) (MB)    (FT/S) (FT/S/D)
5E ST. MARYS GA  1721      76                N/A     2/13   2/ 90/13
FRYING PAN BUOY  1750   71 74   CALM  /  2 1023.8F   4/10   5/110/10
BUOY 41025       1750   62 62  270/  6/  8 1022.5S   5/10   5/ 70/10
CAPE LOOKOUT NC  1800   72     230/  8/ 11 1022.1F
BUOY 41002       1750   69 70   30/ 16/ 17 1022.4R   8/11   7/ 20/11
BUOY 41010       1720   73 78   60/ 10/ 12 1022.4F
ST AUGUSTINE FL  1800   72 72  140/  6/  6 1023.2F


$$



USA.gov is the U.S. government's official web portal to all federal, state and local government web resources and services.